User: anonymous   Login
Location: Charleston
(38.3500°N, 81.6330°W)
Time: 10:01:59
(UTC-05:00)
Language:

Cosmos 2228 - Orbit

View from above orbital plane
View from above orbital plane
View from above satellite
View from above satellite

Ground track
Ground track

The orbit data is extracted from the following two-line orbital elements,

1 22286U 92094A   17327.17928181  .00000290  00000-0  28903-4 0  9998
2 22286  82.5223 224.1699 0020289 317.2038  42.7598 14.87875408346136
Epoch (UTC): 23 November 2017 04:18:09
Eccentricity: 0.0020289
inclination: 82.5223°
perigee height: 590 km
apogee height: 619 km
right ascension of ascending node: 224.1699°
argument of perigee: 317.2038°
revolutions per day: 14.87875408
mean anomaly at epoch: 42.7598°
orbit number at epoch: 34613

The dashed part of the orbit path shows where the satellite is in the earth's shadow,  

DLR